RH
25 20 18 17 20 18 28 37 51 57 50 55 61 61 61 60 59 59 57 58 58 60 57 55 57 50 48 49 49 48 52 60 59 62 67 69 78 85 82 84 85 84 86 89
24 29 27 24 22 26 32 40 54 55 52 52 60 60 60 59 60 62 59 56 58 57 57 60 58 51 52 50 54 52 51 56 58 54 61 66 68 79 80 80 85 84 84 86
27 26 25 26 27 32 34 35 53 46 56 54 53 54 54 54 54 55 57 57 56 59 58 56 53 52 50 53 55 51 52 53 60 63 56 57 58 59 71 79 83 85 84 86
29 27 27 28 29 24 31 29 42 50 39 41 48 29 54 54 51 53 59 55 53 54 54 53 50 50 51 54 53 52 51 50 53 62 63 70 67 68 70 73 79 82 80 82
31 29 30 30 32 33 38 40 41 38 40 46 47 47 54 60 48 47 56 57 55 56 56 55 54 50 48 53 54 55 52 50 54 58 65 63 71 65 64 66 71 73 78 77
27 22 24 28 31 32 36 37 40 42 42 49 42 44 59 57 69 52 56 55 55 55 55 53 53 50 47 48 55 53 53 52 54 57 62 69 73 68 66 68 71 72 73 73
27 27 23 27 32 30 32 35 45 50 59 49 49 48 81 56 49 48 53 52 54 57 56 54 50 48 51 53 58 54 54 54 55 57 61 67 69 69 66 68 70 71 74 76
32 34 26 26 32 31 34 37 43 41 45 49 57 69 54 46 47 50 49 52 58 57 58 58 55 54 53 58 61 58 54 57 54 56 61 61 63 57 61 63 64 67 71 73
34 35 25 26 25 26 40 42 42 61 64 60 53 87 53 53 56 57 57 62 58 58 56 55 56 59 58 60 64 63 57 58 55 56 58 61 62 64 65 65 63 64 66 60
39 36 27 36 30 39 33 41 55 59 78 68 56 63 58 76 69 61 62 60 55 56 55 56 57 60 60 62 63 60 60 57 56 56 58 57 61 63 65 64 67 68 67 66
36 39 34 30 31 44 48 53 66 57 55 46 45 44 53 58 62 69 57 50 46 46 50 55 57 61 63 62 55 60 59 57 57 56 59 62 63 63 63 65 67 69 69 67
36 41 40 32 30 36 41 48 49 82 77 74 71 64 38 52 53 53 46 45 44 45 48 51 60 63 60 54 55 59 62 57 58 58 60 65 65 62 65 66 66 68 68 67
43 49 50 36 31 36 40 52 49 55 65 82 75 57 43 53 53 46 41 41 44 49 50 55 50 48 53 52 56 57 59 58 58 57 59 64 67 65 68 67 66 64 66 66
50 43 40 45 36 37 40 53 48 38 56 52 52 28 52 52 45 43 41 41 42 46 49 41 41 46 50 53 56 60 59 59 59 59 59 64 68 66 68 67 66 67 67 66
48 46 39 36 38 33 35 48 46 33 36 33 28 30 40 44 40 37 40 44 44 44 43 40 44 49 51 55 57 58 59 61 61 60 60 67 68 65 68 70 69 69 70 67
44 66 50 74 42 31 33 40 44 37 36 30 35 38 31 37 36 41 43 42 40 40 39 38 44 49 53 55 55 58 60 62 59 60 62 63 63 65 69 70 70 69 68 67
49 67 65 65 44 37 52 37 45 41 34 32 34 22 40 46 45 42 40 39 38 38 37 39 44 49 51 52 56 58 58 58 59 60 62 62 60 63 68 64 63 65 66 66
53 55 61 78 46 70 40 30 30 38 37 32 28 27 33 33 38 35 34 37 37 35 36 39 43 49 51 52 54 59 54 56 58 56 56 58 59 59 83 62 60 68 62 62
52 57 84 79 62 34 27 31 36 42 32 32 32 29 28 36 36 40 36 34 37 36 35 40 42 47 51 53 56 55 56 54 54 55 56 56 60 58 59 77 100 83 67 68
51 53 68 82 64 58 27 30 32 27 36 27 31 33 34 36 40 33 39 37 37 39 41 44 49 50 53 56 57 58 57 55 54 57 56 55 56 54 55 60 63 63 59 58
67 76 74 78 62 35 28 34 31 39 35 31 32 33 38 37 26 31 39 39 37 43 49 48 52 53 54 58 59 61 61 54 56 59 58 57 54 55 53 57 58 57 57 60
56 71 72 73 69 52 35 34 40 38 40 38 37 39 47 36 44 44 39 39 42 43 49 54 55 58 61 62 60 56 50 59 60 61 60 57 58 56 54 62 60 59 61 68
54 53 70 52 49 41 43 39 41 42 40 38 38 38 42 46 42 42 39 40 39 42 46 52 54 63 65 63 56 49 55 60 63 64 63 63 64 62 62 66 68 74 72 76
59 58 57 52 48 47 46 42 42 40 41 36 36 39 43 40 42 41 41 40 42 41 46 51 57 62 67 62 54 50 57 62 66 64 65 64 68 70 66 70 78 82 84 83
56 58 58 55 51 47 44 44 41 40 43 38 36 39 40 38 42 40 41 42 41 44 51 55 57 60 59 57 53 54 57 65 65 66 65 66 72 72 80 83 86 85 79 84
56 60 58 61 50 51 43 40 40 45 42 40 39 43 42 38 40 40 41 41 43 48 54 57 58 58 56 53 52 54 60 64 68 66 69 74 84 80 74 76 85 80 85 76
Wind_Speed
4 4 11 17 2 11 13 14 15 4 2 8 12 11 6 4 5 7 7 9 10 10 9 12 13 14 14 15 16 17 17 18 14 13 13 9 11 10 9 10 14 15 12 14
5 5 2 8 13 18 17 22 9 5 5 6 7 7 3 3 3 2 4 7 8 8 9 10 11 13 15 15 16 17 17 17 14 11 10 6 10 7 8 10 11 13 15 14
6 4 6 14 15 21 8 12 10 9 9 8 10 3 3 3 2 2 3 4 7 8 9 9 10 11 13 15 15 16 16 16 16 16 10 8 7 8 11 11 11 12 14 14
7 3 11 12 12 11 7 6 11 19 7 5 5 4 5 3 2 3 3 4 7 9 9 9 9 11 12 12 12 14 15 16 14 16 13 16 12 11 10 11 10 10 14 14
1 6 9 9 4 3 6 14 15 7 6 7 6 4 4 2 6 5 5 4 4 5 6 7 7 8 9 9 10 10 11 15 16 16 15 11 13 10 9 10 14 15 12 14
5 2 3 3 5 6 16 14 8 4 3 2 3 4 4 7 7 4 5 5 4 3 3 3 3 5 8 9 10 11 12 13 14 14 15 14 14 13 12 13 12 11 11 12
3 3 1 5 16 4 6 7 4 3 3 2 2 4 4 8 8 9 11 8 4 2 2 0 3 5 6 9 10 10 11 12 12 13 14 14 14 14 13 13 11 13 11 11
6 5 7 3 4 8 8 2 5 6 5 4 1 6 1 6 8 8 7 6 3 4 4 4 2 1 4 6 8 9 10 10 11 12 12 12 14 9 10 12 11 10 10 11
6 2 1 1 4 3 5 4 3 7 2 2 3 3 5 6 8 8 8 6 8 7 6 5 4 3 1 5 7 8 8 8 10 11 10 11 11 12 11 13 12 10 11 11
7 7 2 4 4 10 1 8 4 1 6 5 3 5 6 14 14 12 10 11 9 7 6 5 5 4 3 3 4 6 7 7 9 10 9 9 10 10 10 10 12 13 13 14
6 4 4 4 5 9 6 4 5 4 1 3 2 5 4 17 17 16 13 12 10 9 6 4 4 5 5 5 5 6 6 7 8 8 8 8 8 9 9 9 11 12 13 14
5 6 5 3 2 3 2 6 6 4 6 2 1 4 1 8 16 15 14 11 9 7 6 6 6 7 7 7 6 6 5 6 6 6 7 7 8 9 10 10 11 12 13 12
9 4 7 3 0 1 5 5 4 8 4 7 5 2 2 6 12 13 13 11 9 8 9 8 8 8 8 7 5 5 5 5 5 5 7 7 8 9 10 11 12 12 13 12
7 5 5 8 4 6 7 9 12 6 4 7 6 4 7 11 14 14 12 11 10 11 11 10 8 8 8 6 6 5 5 4 5 5 6 7 7 8 8 9 11 11 12 12
4 5 3 3 4 4 6 13 16 14 6 8 3 12 16 18 18 18 15 11 12 12 12 11 10 9 8 7 7 6 5 4 4 5 5 6 6 6 6 8 9 9 10 10
1 4 3 2 4 2 2 8 16 15 9 11 3 7 9 16 14 13 15 14 15 15 13 12 10 10 9 9 8 7 5 4 3 5 6 6 6 6 7 8 9 9 10 11
7 8 4 4 4 4 5 16 16 12 12 15 15 12 10 11 18 19 17 17 18 16 15 14 13 11 10 9 9 8 6 5 4 5 5 6 7 7 8 8 9 10 11 10
9 8 3 4 6 4 4 1 13 17 9 19 11 10 15 16 20 19 18 20 18 16 15 14 11 10 10 9 8 7 5 4 4 5 5 6 7 8 5 8 10 10 10 11
1 7 5 6 5 4 5 7 9 14 12 21 23 14 13 6 8 11 16 19 20 19 16 13 12 11 10 9 8 6 5 4 3 4 5 6 5 7 8 7 5 8 10 11
4 6 4 4 5 8 3 3 7 9 7 6 21 19 15 13 11 10 17 16 14 15 14 14 12 10 10 8 7 6 4 2 1 3 4 5 5 6 8 9 9 9 10 11
4 3 5 4 3 5 6 3 8 6 3 1 7 17 19 16 14 6 15 15 15 16 15 13 13 11 10 9 8 5 4 3 1 2 4 5 5 6 7 8 8 10 11 11
9 8 5 3 2 8 8 7 8 2 1 2 2 12 20 14 8 9 17 18 18 18 16 15 13 11 9 9 8 6 5 4 3 1 3 4 5 5 6 9 9 10 11 11
7 6 8 10 7 1 9 3 5 3 1 1 1 5 14 12 9 13 16 18 18 20 16 14 13 12 10 9 7 6 5 5 3 2 3 5 6 6 7 8 9 9 10 9
5 3 4 4 6 9 7 4 6 5 7 4 3 6 13 14 12 13 15 16 17 17 16 14 14 12 11 9 7 5 6 5 4 2 4 5 6 8 8 7 7 7 8 10
4 11 8 2 3 2 9 12 9 10 9 7 4 8 14 13 13 14 15 16 16 16 14 14 13 12 11 10 8 6 6 5 4 2 4 5 5 8 8 8 8 7 8 8
6 8 8 5 8 5 3 6 8 10 11 11 9 6 10 14 15 14 14 16 17 16 14 13 12 11 10 10 8 7 6 6 4 3 3 3 4 4 5 6 6 5 8 14
Wind_Direction
32 108 164 168 152 120 107 106 108 93 94 64 93 117 118 112 100 77 53 43 39 41 17 22 22 23 23 26 24 26 24 18 15 14 9 16 5 21 16 13 14 6 358 346
67 85 23 111 131 121 125 122 104 91 80 88 138 114 115 128 111 72 56 58 55 56 51 38 31 22 20 23 23 21 22 22 21 21 19 16 11 19 11 359 9 11 3 4
110 106 119 120 126 117 124 146 160 137 120 71 142 117 199 174 171 139 98 86 80 69 71 60 52 46 38 26 18 26 26 22 22 15 21 27 28 29 15 13 9 359 3 359
76 38 126 122 116 138 120 141 136 137 148 152 210 171 220 191 211 165 152 109 85 87 85 71 63 54 45 33 25 23 25 28 29 26 27 28 27 25 14 9 3 3 8 0
121 127 117 104 107 108 126 135 129 137 105 141 190 229 136 191 210 188 170 156 118 87 77 72 61 53 52 43 33 27 34 33 29 30 33 32 29 21 13 17 14 8 5 5
91 68 57 104 59 127 133 110 79 73 91 215 168 228 203 186 191 175 177 183 174 151 106 88 70 55 44 39 32 29 37 39 35 31 31 32 35 24 20 15 15 10 4 1
64 16 54 123 105 97 133 146 126 161 190 223 137 193 256 190 179 169 169 174 184 206 211 353 41 39 32 30 27 25 29 39 37 34 31 28 27 25 27 21 13 9 5 1
153 178 177 167 143 162 159 175 164 170 184 140 155 228 253 190 166 154 163 163 202 235 235 238 232 352 12 13 19 24 33 38 36 36 37 32 28 25 26 20 18 11 3 357
148 76 83 37 131 160 157 178 94 107 46 180 199 268 246 174 171 187 198 207 222 229 230 232 219 211 43 22 23 27 38 49 39 35 39 39 34 30 26 23 20 11 6 357
171 123 133 156 105 50 159 139 144 79 153 212 204 264 217 193 191 195 202 212 213 221 221 216 209 181 126 54 50 55 62 56 41 39 38 38 33 27 26 22 19 12 3 0
138 108 154 158 211 159 143 160 73 99 24 175 191 241 222 193 187 186 196 200 201 199 196 178 163 145 128 106 87 81 68 47 41 43 41 38 29 25 23 21 15 7 358 359
174 118 137 173 4 180 132 163 162 157 185 70 37 272 297 200 180 181 188 197 196 200 180 160 151 137 132 121 108 95 80 58 46 42 40 34 28 21 19 17 8 2 359 358
173 129 118 121 142 124 212 178 129 111 122 185 163 236 14 152 167 184 182 187 186 172 154 150 142 137 136 134 129 122 94 70 53 41 36 30 26 20 19 11 2 360 357 356
108 137 169 180 172 141 184 173 174 158 169 158 225 157 186 181 179 183 187 185 183 171 164 151 145 143 145 145 145 140 110 79 55 44 34 30 24 18 15 7 2 359 357 356
138 143 146 116 123 138 158 177 184 204 171 188 190 206 193 192 190 190 189 181 172 173 169 164 162 164 161 157 150 146 134 121 73 57 39 33 24 19 11 4 0 358 356 352
55 125 111 52 126 155 167 192 198 214 209 241 206 239 216 200 196 187 189 181 183 183 178 174 173 172 173 168 160 155 148 123 101 57 38 31 19 13 10 3 359 356 351 354
147 140 134 171 153 135 281 214 195 206 210 214 218 225 161 178 192 197 192 188 190 187 180 181 182 180 175 171 163 158 148 123 86 55 38 27 21 12 4 1 357 354 348 341
146 120 78 127 146 198 236 153 206 209 216 213 226 197 188 194 199 198 196 190 191 185 180 183 180 175 172 163 160 148 137 104 73 47 32 19 11 5 345 349 353 346 339 337
219 128 113 152 198 297 233 190 169 187 244 215 221 207 197 174 161 215 202 194 186 184 181 178 178 171 166 168 157 146 124 80 53 26 11 359 349 348 347 343 314 332 333 328
81 57 114 158 157 203 254 164 155 153 273 211 212 207 179 159 200 203 183 188 180 170 165 165 168 164 165 164 158 152 126 95 58 14 355 347 342 341 346 343 337 332 329 322
133 51 161 154 191 273 227 157 173 159 227 151 208 203 181 196 211 165 166 175 173 163 159 157 163 170 170 161 162 160 157 164 125 322 325 333 329 332 332 332 329 331 329 325
158 150 172 117 150 240 159 130 194 168 138 231 247 203 197 202 159 154 166 164 161 159 156 161 165 168 161 164 172 170 176 162 191 258 317 325 315 315 319 322 319 327 330 327
201 181 170 190 197 213 197 164 189 157 244 256 233 208 194 181 179 161 167 167 165 162 160 164 165 161 166 175 182 171 162 175 191 216 323 327 321 317 317 315 316 323 332 331
219 163 159 145 201 220 218 227 224 207 232 236 214 185 180 183 177 174 162 162 161 163 163 163 161 167 173 182 181 171 164 169 190 269 323 332 330 331 329 326 324 328 335 336
174 156 161 260 265 260 231 227 226 239 232 238 207 195 194 182 180 171 167 167 166 163 161 166 169 173 179 179 185 183 180 188 211 275 320 332 333 340 345 343 332 325 326 325
187 154 183 195 205 181 209 195 198 227 231 213 201 192 193 191 179 173 174 170 164 164 162 168 173 174 176 178 184 184 185 193 204 274 319 325 323 337 329 329 319 307 287 319